When you browse on this site, cookies collect data to enhance your experience and personalize the content and advertising you see.
Visit our Privacy Policy to learn more. By continuing to use the site, you agree to this use of cookies and data.
  • In Deutschland
  • Länderverzeichnis
  • Für 7 Tage
  • Wassertemperatur
  • Satellitenkarten
  • Wetterkarte
  • Widgets
  • user-avatar
    Anmelden

    Stündliche Wetter Uige

    Heute, 21 Mai, Dienstag

    Zeit Temperatur Niederschläge Wind Luftdruck Luftfeuchtigkeit
    00:00 +21°C° 0 mm 0 m/S 691 mmHg 88%
    01:00 +22°C° 0 mm 1 m/S 691 mmHg 97%
    02:00 +20°C° 0 mm 0 m/S 691 mmHg 97%
    03:00 +20°C° 0 mm 0 m/S 690 mmHg 98%
    04:00 +20°C° 0 mm 0 m/S 690 mmHg 98%
    05:00 +20°C° 0 mm 0 m/S 691 mmHg 96%
    06:00 +20°C° 0 mm 0 m/S 691 mmHg 94%
    07:00 +21°C° 0 mm 0 m/S 692 mmHg 89%
    08:00 +24°C° 0 mm 0 m/S 692 mmHg 77%
    09:00 +28°C° 0 mm 1 m/S 692 mmHg 65%
    10:00 +31°C° 0 mm 1 m/S 693 mmHg 54%
    11:00 +32°C° 0 mm 1 m/S 692 mmHg 50%
    12:00 +33°C° 0 mm 1 m/S 692 mmHg 46%
    13:00 +33°C° 0 mm 1 m/S 691 mmHg 47%
    14:00 +32°C° 0 mm 1 m/S 691 mmHg 50%
    15:00 +31°C° 0 mm 1 m/S 690 mmHg 52%
    16:00 +31°C° 0 mm 1 m/S 690 mmHg 55%
    17:00 +29°C° 0.9 mm 1 m/S 690 mmHg 65%
    18:00 +27°C° 0.9 mm 1 m/S 690 mmHg 75%
    19:00 +24°C° 0.9 mm 1 m/S 690 mmHg 85%
    20:00 +22°C° 0.1 mm 0 m/S 690 mmHg 86%
    21:00 +22°C° 0.1 mm 0 m/S 691 mmHg 88%
    22:00 +21°C° 0.1 mm 0 m/S 691 mmHg 89%
    23:00 +21°C° 0.1 mm 0 m/S 691 mmHg 91%

    Morgen, 22 Mai, Mittwoch

    Zeit Temperatur Niederschläge Wind Luftdruck Luftfeuchtigkeit
    00:00 +21°C° 0.1 mm 0 m/S 691 mmHg 92%
    01:00 +20°C° 0.1 mm 0 m/S 691 mmHg 94%
    02:00 +20°C° 0 mm 0 m/S 691 mmHg 95%
    03:00 +20°C° 0 mm 0 m/S 691 mmHg 96%
    04:00 +20°C° 0 mm 0 m/S 690 mmHg 98%
    05:00 +22°C° 0 mm 1 m/S 691 mmHg 97%
    06:00 +22°C° 0 mm 1 m/S 691 mmHg 97%
    07:00 +22°C° 0 mm 1 m/S 691 mmHg 96%
    08:00 +25°C° 0.4 mm 1 m/S 692 mmHg 88%
    09:00 +27°C° 0.4 mm 1 m/S 693 mmHg 80%
    10:00 +29°C° 0.4 mm 1 m/S 693 mmHg 72%
    11:00 +30°C° 0.7 mm 1 m/S 693 mmHg 67%
    12:00 +31°C° 0.7 mm 1 m/S 692 mmHg 62%
    13:00 +32°C° 0.7 mm 1 m/S 692 mmHg 58%
    14:00 +31°C° 1.5 mm 1 m/S 691 mmHg 65%
    15:00 +29°C° 1.5 mm 1 m/S 691 mmHg 72%
    16:00 +28°C° 1.5 mm 1 m/S 690 mmHg 78%
    17:00 +26°C° 0.8 mm 1 m/S 690 mmHg 84%
    18:00 +25°C° 0.8 mm 1 m/S 690 mmHg 89%
    19:00 +24°C° 0.8 mm 1 m/S 691 mmHg 94%
    20:00 +23°C° 0.1 mm 1 m/S 691 mmHg 95%
    21:00 +23°C° 0.1 mm 1 m/S 691 mmHg 95%
    22:00 +23°C° 0.1 mm 1 m/S 692 mmHg 96%
    23:00 +23°C° 0 mm 1 m/S 692 mmHg 97%

    übermorgen, 23 Mai, Donnerstag

    Zeit Temperatur Niederschläge Wind Luftdruck Luftfeuchtigkeit
    00:00 +23°C° 0 mm 1 m/S 691 mmHg 98%
    01:00 +22°C° 0 mm 1 m/S 691 mmHg 98%
    02:00 +23°C° 0 mm 1 m/S 691 mmHg 98%
    03:00 +23°C° 0 mm 1 m/S 691 mmHg 97%
    04:00 +23°C° 0 mm 1 m/S 691 mmHg 96%
    05:00 +23°C° 0 mm 1 m/S 691 mmHg 96%
    06:00 +23°C° 0 mm 1 m/S 691 mmHg 96%
    07:00 +23°C° 0 mm 1 m/S 691 mmHg 96%
    08:00 +24°C° 0.1 mm 1 m/S 692 mmHg 88%
    09:00 +26°C° 0.1 mm 1 m/S 692 mmHg 80%
    10:00 +28°C° 0.1 mm 1 m/S 693 mmHg 71%
    11:00 +30°C° 0.3 mm 1 m/S 692 mmHg 63%
    12:00 +32°C° 0.3 mm 1 m/S 692 mmHg 55%
    13:00 +34°C° 0.3 mm 1 m/S 692 mmHg 47%
    14:00 +33°C° 0.1 mm 1 m/S 691 mmHg 51%
    15:00 +29°C° 0.1 mm 0 m/S 690 mmHg 56%
    16:00 +28°C° 0.1 mm 0 m/S 689 mmHg 60%
    17:00 +27°C° 0.3 mm 0 m/S 690 mmHg 65%
    18:00 +27°C° 0.3 mm 1 m/S 690 mmHg 71%
    19:00 +26°C° 0.3 mm 1 m/S 690 mmHg 77%
    20:00 +25°C° 0 mm 1 m/S 691 mmHg 79%
    21:00 +23°C° 0 mm 0 m/S 691 mmHg 81%
    22:00 +22°C° 0 mm 0 m/S 692 mmHg 84%
    23:00 +21°C° 0 mm 0 m/S 691 mmHg 87%

    24 Mai, Freitag

    Zeit Temperatur Niederschläge Wind Luftdruck Luftfeuchtigkeit
    00:00 +21°C° 0 mm 0 m/S 691 mmHg 91%
    01:00 +20°C° 0 mm 0 m/S 691 mmHg 95%
    02:00 +20°C° 0 mm 0 m/S 691 mmHg 95%
    03:00 +22°C° 0 mm 1 m/S 690 mmHg 96%
    04:00 +23°C° 0 mm 1 m/S 690 mmHg 96%
    05:00 +23°C° 0 mm 1 m/S 691 mmHg 95%
    06:00 +23°C° 0 mm 1 m/S 691 mmHg 94%
    07:00 +23°C° 0 mm 1 m/S 692 mmHg 93%
    08:00 +26°C° 0 mm 1 m/S 692 mmHg 82%
    09:00 +28°C° 0 mm 1 m/S 693 mmHg 70%
    10:00 +31°C° 0 mm 1 m/S 693 mmHg 59%
    11:00 +32°C° 0.1 mm 1 m/S 693 mmHg 55%
    12:00 +33°C° 0.1 mm 1 m/S 692 mmHg 51%
    13:00 +34°C° 0.1 mm 1 m/S 691 mmHg 47%
    14:00 +32°C° 0.8 mm 1 m/S 691 mmHg 58%
    15:00 +29°C° 0.8 mm 1 m/S 690 mmHg 69%
    16:00 +27°C° 0.8 mm 1 m/S 689 mmHg 81%
    17:00 +26°C° 0.5 mm 1 m/S 690 mmHg 84%
    18:00 +25°C° 0.5 mm 1 m/S 690 mmHg 88%
    19:00 +24°C° 0.5 mm 1 m/S 691 mmHg 91%
    20:00 +24°C° 0 mm 1 m/S 691 mmHg 92%
    21:00 +21°C° 0 mm 0 m/S 691 mmHg 93%
    22:00 +21°C° 0 mm 0 m/S 692 mmHg 94%
    23:00 +21°C° 0 mm 0 m/S 692 mmHg 96%

    25 Mai, Samstag

    Zeit Temperatur Niederschläge Wind Luftdruck Luftfeuchtigkeit
    00:00 +22°C° 0 mm 1 m/S 691 mmHg 97%
    01:00 +22°C° 0 mm 1 m/S 691 mmHg 98%
    02:00 +22°C° 0 mm 1 m/S 691 mmHg 98%
    03:00 +23°C° 0 mm 1 m/S 691 mmHg 97%
    04:00 +23°C° 0 mm 1 m/S 691 mmHg 96%
    05:00 +23°C° 0 mm 1 m/S 691 mmHg 96%
    06:00 +23°C° 0 mm 1 m/S 692 mmHg 95%
    07:00 +23°C° 0 mm 1 m/S 692 mmHg 95%
    08:00 +25°C° 0.8 mm 1 m/S 692 mmHg 88%
    09:00 +26°C° 0.8 mm 1 m/S 693 mmHg 80%
    10:00 +28°C° 0.8 mm 1 m/S 693 mmHg 73%
    11:00 +30°C° 0.7 mm 1 m/S 692 mmHg 65%
    12:00 +31°C° 0.7 mm 1 m/S 692 mmHg 57%
    13:00 +32°C° 0.7 mm 1 m/S 691 mmHg 50%
    14:00 +32°C° 0 mm 1 m/S 691 mmHg 50%
    15:00 +32°C° 0 mm 1 m/S 690 mmHg 51%
    16:00 +29°C° 0 mm 0 m/S 690 mmHg 51%
    17:00 +28°C° 0 mm 0 m/S 690 mmHg 57%
    18:00 +26°C° 0 mm 0 m/S 691 mmHg 62%
    19:00 +24°C° 0 mm 0 m/S 691 mmHg 68%
    20:00 +23°C° 0.1 mm 0 m/S 691 mmHg 73%
    21:00 +23°C° 0.1 mm 0 m/S 691 mmHg 78%
    22:00 +22°C° 0.1 mm 0 m/S 691 mmHg 82%
    23:00 +21°C° 0 mm 0 m/S 691 mmHg 87%

    26 Mai, Sonntag

    Zeit Temperatur Niederschläge Wind Luftdruck Luftfeuchtigkeit
    00:00 +23°C° 0 mm 1 m/S 691 mmHg 92%
    01:00 +22°C° 0 mm 1 m/S 690 mmHg 97%
    02:00 +22°C° 0 mm 1 m/S 690 mmHg 96%
    03:00 +22°C° 0 mm 1 m/S 690 mmHg 96%
    04:00 +22°C° 0 mm 1 m/S 690 mmHg 96%
    05:00 +22°C° 0 mm 1 m/S 691 mmHg 95%
    06:00 +22°C° 0 mm 1 m/S 691 mmHg 94%
    07:00 +21°C° 0 mm 0 m/S 692 mmHg 93%
    08:00 +25°C° 0 mm 1 m/S 692 mmHg 80%
    09:00 +28°C° 0 mm 1 m/S 693 mmHg 66%
    10:00 +30°C° 0 mm 1 m/S 693 mmHg 52%
    11:00 +31°C° 0 mm 1 m/S 693 mmHg 46%
    12:00 +33°C° 0 mm 1 m/S 692 mmHg 40%
    13:00 +34°C° 0 mm 1 m/S 691 mmHg 35%
    14:00 +33°C° 0 mm 1 m/S 691 mmHg 36%
    15:00 +33°C° 0 mm 1 m/S 691 mmHg 37%
    16:00 +33°C° 0 mm 1 m/S 690 mmHg 38%
    17:00 +30°C° 0 mm 1 m/S 690 mmHg 47%
    18:00 +28°C° 0 mm 1 m/S 691 mmHg 55%
    19:00 +25°C° 0 mm 1 m/S 691 mmHg 64%
    20:00 +25°C° 0 mm 1 m/S 691 mmHg 70%
    21:00 +24°C° 0 mm 1 m/S 691 mmHg 76%
    22:00 +24°C° 0 mm 1 m/S 691 mmHg 82%
    23:00 +23°C° 0 mm 1 m/S 691 mmHg 87%
    Mehr zeigen